CAPE
3410 3107 3118 3061 3021 2849 3016 3092 3108 3023 2832 2851 2814 2462 2184 2092 2280 2348 2500 2311 2241 2118 1908 2009 1885 1782 1662 1365 1061 925 798 749 774 743 634 531 475 324 328 291 0 0 0 0 0 0 0 0 0 0 0 0 0 0 0 0 0 0 0 0 0 0 0 1 14 18 0 0 0 0 0 0 0 0 0 0 0 0 0 0 0 0 0 0 0
3388 3150 2979 2819 2722 2805 2952 2889 3211 2829 3117 3152 2702 2346 2328 2276 2294 2382 2517 2481 2241 2056 2032 1871 1783 1691 1551 1031 1134 982 846 794 805 747 662 538 432 333 313 26 0 0 0 0 0 0 0 0 0 0 0 0 0 0 0 0 0 0 0 1 0 0 0 15 21 4 0 0 0 0 0 0 0 0 0 0 0 0 0 0 0 0 0 0 0
3145 2918 2766 2450 2901 2796 3006 2968 3098 3059 3235 3233 2676 2561 2351 2352 2270 2422 2537 2533 2210 2202 2030 1756 1626 1573 1409 1039 1182 1037 898 852 793 754 639 477 350 319 201 0 0 0 0 0 0 0 0 0 0 0 0 0 0 0 0 0 0 0 0 0 0 0 5 39 24 13 2 0 0 0 0 0 0 0 0 0 0 0 0 0 0 0 0 0 0
2875 2828 2753 2496 2690 2615 2763 2896 3074 3086 3185 3106 2847 2642 2370 2281 2268 2328 2324 2299 2202 2121 1987 1667 1502 1450 1254 1099 1230 1104 974 881 806 751 570 407 322 312 0 0 0 0 0 0 0 0 0 0 0 0 0 0 0 0 0 0 0 0 0 0 0 0 44 52 1 28 0 0 0 0 0 0 0 0 0 0 0 0 0 0 0 0 0 0 0
3008 2973 2887 2934 2729 2718 2824 2913 3071 3148 3226 2963 2666 2374 2333 2311 2215 2202 2294 2200 2166 2035 1787 1461 1420 1306 1078 1185 1264 1164 1011 875 798 658 514 382 351 226 0 0 0 0 0 0 0 0 0 0 0 0 0 0 0 0 0 0 0 0 0 0 0 11 47 0 0 0 0 0 0 0 0 0 0 0 0 0 0 0 0 0 0 0 0 0 0
3102 3049 2933 2695 2609 2770 2883 2777 2912 3145 3139 2905 2520 2561 2413 2323 2232 2046 2015 2097 2060 1896 1529 1394 1179 1107 1102 1226 1285 1159 1005 844 776 677 524 431 433 259 0 0 0 0 0 0 0 0 0 0 0 0 0 0 0 0 0 0 0 0 0 0 4 31 0 13 0 0 0 0 0 0 0 0 0 0 0 0 0 0 0 0 0 0 0 0 0
3204 3126 2896 2634 2426 2509 2631 2771 2826 2892 2932 2842 2773 2571 2424 2318 2132 1801 1816 2055 1947 1687 1504 1396 1240 1144 1120 1251 1283 1150 1043 844 754 605 490 502 513 423 276 0 0 0 0 0 0 0 0 0 0 0 0 0 0 0 0 0 0 0 0 0 4 16 1 0 0 0 0 0 0 0 0 0 0 0 0 0 0 0 0 0 0 0 0 0 0
3235 3202 2997 2831 2587 2482 2596 2667 2631 2774 2933 2861 2649 2587 2418 2228 1916 1668 1925 1997 1849 1509 1489 1353 1302 1180 1125 1290 1324 1170 1084 920 775 590 460 479 540 519 445 75 0 0 0 0 0 0 0 0 0 0 0 0 0 0 0 0 0 0 0 0 0 15 25 8 0 0 0 0 0 0 0 0 0 0 0 0 0 0 0 0 0 0 0 0 0
3240 3118 2892 2808 2618 2535 2532 2563 2649 2624 2641 2672 2604 2416 2205 2143 1856 1640 1694 1920 1620 1468 1438 1429 1302 1206 1141 1304 1334 1243 1096 929 804 596 442 447 496 552 546 357 200 0 0 0 0 0 0 0 0 0 0 0 0 0 0 0 0 0 0 0 0 7 8 0 0 0 0 0 0 0 0 0 0 0 0 0 0 0 0 0 0 0 0 0 0
3218 2944 2830 2728 2579 2424 2326 2540 2580 2560 2478 2482 2489 2357 2040 2016 1656 1696 1694 1574 1590 1448 1502 1452 1301 1224 1102 1268 1324 1300 1173 982 828 719 485 441 516 555 510 348 246 68 0 0 0 0 0 0 0 0 0 0 0 0 0 0 0 0 1 0 0 0 0 0 0 0 0 0 0 0 0 0 0 0 0 0 0 0 0 0 0 0 0 0 0
3083 2901 2716 2562 2479 2333 2282 2442 2461 2467 2464 2407 2376 2249 2030 1798 1691 1632 1725 1624 1438 1502 1522 1447 1318 1185 1126 1294 1330 1313 1183 1018 743 684 529 502 527 487 424 322 234 126 0 0 0 0 0 0 0 0 0 0 0 0 0 0 0 15 17 8 1 0 0 0 0 0 0 0 0 0 0 0 0 0 0 0 0 0 0 0 0 0 0 0 0
2994 2650 2444 2537 2426 2300 2315 2477 2427 2295 2289 2376 2316 2070 1889 1677 1529 1566 1709 1700 1525 1502 1550 1481 1308 1193 1154 1272 1322 1315 1182 1057 712 570 507 563 538 413 316 307 229 64 0 0 0 0 0 0 0 0 0 0 0 0 0 0 0 19 20 14 4 0 0 0 2 0 0 0 0 0 0 0 0 0 0 0 0 0 0 0 0 0 0 0 0
2701 2291 2333 2406 2149 2319 2434 2389 2192 2096 2255 2240 2066 1975 1719 1486 1492 1602 1653 1684 1622 1535 1614 1464 1315 1218 1245 1311 1331 1319 1176 1051 750 539 480 542 498 362 314 316 223 20 0 0 0 0 0 0 0 0 0 0 0 0 0 0 3 18 27 18 1 0 0 0 0 0 0 0 0 0 0 0 0 0 0 0 0 0 0 0 0 0 0 0 0
2558 2246 2211 2164 2285 2341 2307 2347 2012 2097 2083 2051 1648 1548 1434 1480 1557 1534 1564 1690 1725 1618 1552 1391 1311 1233 1284 1418 1428 1391 1214 1008 723 547 459 497 408 326 325 360 279 200 0 0 0 90 0 0 0 0 0 0 0 0 0 14 8 3 26 2 0 0 0 0 0 0 0 0 0 0 0 0 0 0 0 0 0 0 0 0 0 0 0 0 0
2499 2192 2090 2170 2292 2319 2208 2144 1966 1982 1942 1828 1568 1477 1420 1476 1459 1496 1634 1708 1719 1664 1641 1550 1327 1264 1347 1454 1532 1448 1205 942 672 551 486 495 362 319 365 423 417 302 187 163 148 149 20 0 0 0 30 166 136 110 23 18 3 22 13 0 0 0 0 0 0 0 0 0 0 0 0 0 0 0 0 0 0 0 0 0 0 0 0 0 0
2200 2138 2136 2157 2210 2262 2071 1972 2112 1839 1778 1614 1482 1382 1371 1349 1433 1524 1614 1673 1754 1646 1635 1582 1276 1316 1403 1531 1564 1427 1179 934 703 595 499 476 371 340 357 424 462 384 260 183 163 148 98 0 0 0 171 175 123 11 34 37 39 15 0 0 0 0 0 0 0 0 41 34 0 0 0 6 4 0 0 0 0 0 0 0 0 0 0 0 0
2028 2055 2115 2156 2123 2108 1935 1889 2015 1972 1587 1451 1329 1250 1285 1393 1446 1455 1558 1675 1677 1678 1695 1617 1300 1135 1416 1468 1461 1326 1083 933 730 654 541 392 368 311 317 359 404 428 355 232 174 148 143 97 0 0 161 178 109 45 51 46 36 4 0 0 0 0 0 0 0 0 0 0 0 0 0 0 0 0 0 0 0 0 0 0 0 0 0 0 0
2111 2116 2121 1888 2098 2064 2028 1911 2037 1780 1637 1352 1252 1245 1326 1347 1432 1424 1491 1612 1633 1689 1693 1631 1320 1078 1205 1218 1125 1172 1093 962 774 669 574 473 409 351 318 284 390 443 420 294 205 168 149 125 22 0 171 65 81 96 84 70 35 0 0 0 0 0 0 0 1 0 0 0 0 0 0 0 0 0 0 0 0 0 0 0 0 0 0 0 0
2139 2159 2060 2051 2042 1921 1883 1956 1950 1620 1403 1321 1265 1303 1328 1406 1478 1390 1421 1503 1608 1687 1654 1618 1411 1152 1140 1091 1080 1055 1144 1024 818 691 643 583 480 393 346 386 412 452 446 357 260 218 199 159 138 140 173 203 98 101 96 76 10 0 0 0 0 0 0 0 0 0 0 0 0 0 0 0 0 0 0 0 0 0 0 0 0 0 0 0 0
2082 2175 2251 2182 2068 1982 2091 2025 1882 1465 1384 1343 1352 1340 1382 1464 1499 1440 1415 1452 1529 1564 1618 1622 1418 1096 1195 1048 1120 1142 1140 1032 862 728 717 651 557 457 426 435 438 430 406 353 297 276 233 206 169 167 189 165 84 83 77 47 8 0 0 0 0 0 0 0 0 0 0 0 0 0 0 0 0 0 0 0 0 0 0 0 0 0 0 0 0
2160 2188 2279 2108 2074 1975 2182 2068 1940 1628 1357 1368 1394 1435 1464 1498 1472 1448 1424 1488 1529 1510 1456 1407 1327 1237 1265 1206 1129 1068 1064 984 884 759 680 613 675 624 503 396 340 372 309 332 273 250 260 244 213 192 161 106 112 112 64 25 13 0 0 0 0 0 0 0 0 0 0 0 0 0 0 0 0 0 0 0 0 0 0 0 0 0 0 0 0
2204 2238 2252 2202 2161 2273 2250 2054 1606 1440 1392 1368 1409 1502 1517 1459 1463 1467 1484 1500 1523 1374 1085 1000 1004 1091 1189 1157 1185 1088 1000 905 887 724 710 695 645 513 334 261 257 270 192 80 258 297 256 249 234 165 111 129 120 21 8 11 3 0 0 0 0 0 0 0 0 0 0 0 0 0 0 0 0 0 0 0 0 0 0 0 0 0 0 0 0
2210 2076 2105 2256 2251 2280 2217 1796 1513 1468 1452 1476 1484 1484 1488 1502 1475 1471 1532 1560 1494 1245 765 601 670 810 952 1100 1048 1039 979 897 863 756 662 518 444 333 243 224 191 182 199 83 38 182 166 165 150 113 120 123 73 53 0 0 0 0 0 0 0 0 0 0 0 0 0 0 0 0 0 0 0 0 0 0 0 0 0 0 0 0 0 0 0
2037 2182 2173 2261 2230 1963 1754 1685 1582 1540 1514 1555 1582 1607 1616 1596 1556 1527 1525 1582 1540 1337 1168 666 514 651 985 1130 1093 1070 921 823 816 678 524 508 465 311 230 187 158 167 137 80 14 102 120 124 82 124 127 74 0 0 0 0 0 0 0 0 0 0 0 0 0 0 0 0 0 0 0 0 0 0 0 0 0 0 0 0 0 0 0 0 0
2175 2218 2126 2022 1896 1762 1674 1670 1672 1625 1618 1596 1619 1638 1625 1573 1570 1621 1505 1478 1477 1460 1355 1012 682 551 812 1127 1084 925 773 780 762 697 622 538 426 309 268 225 158 115 83 63 6 96 115 118 127 138 142 56 0 0 0 0 0 0 0 0 0 0 0 0 0 0 0 0 0 0 0 0 0 0 0 0 0 0 0 0 0 0 0 0 0
2064 1951 1885 1851 1739 1744 1720 1751 1738 1722 1770 1753 1696 1687 1671 1620 1587 1607 1690 1590 1364 1271 1234 1106 906 607 562 982 1303 1140 817 737 704 683 680 569 395 332 280 177 103 76 77 1 74 84 117 123 116 139 138 72 0 0 0 0 0 0 0 0 0 0 0 0 0 0 0 0 0 0 0 0 0 0 0 0 0 0 0 0 0 0 0 0 0
1847 1775 1784 1765 1888 1811 1823 1876 1766 1748 1753 1710 1747 1753 1704 1739 1697 1639 1528 1518 1520 1493 1276 1226 1082 730 673 667 789 901 755 704 420 657 617 576 473 330 220 152 106 56 0 56 76 16 97 89 122 138 62 46 0 0 0 0 0 0 0 0 0 0 0 0 0 0 0 0 0 0 0 0 0 0 0 0 0 0 0 0 0 0 0 0 0
1809 1753 1746 1794 1804 1779 1757 1804 1874 1868 1874 1839 1821 1790 1800 1788 1793 1768 1543 1340 1143 1131 1302 1230 1008 823 739 609 856 1006 401 621 549 594 542 549 453 327 248 157 15 0 3 0 0 0 49 86 31 0 0 0 0 0 0 0 0 0 0 0 0 0 0 0 0 0 0 0 0 0 0 0 0 0 0 0 0 0 0 0 0 0 0 0 0
1829 1887 1771 1908 1814 1837 1821 1778 1784 1849 1886 1898 1918 1877 1880 1820 1786 1810 1710 1430 1011 893 1001 922 758 592 516 501 517 470 172 507 592 573 511 538 498 432 294 92 8 0 0 7 40 82 65 0 0 0 0 0 0 0 0 0 0 0 0 0 0 0 0 0 0 0 0 0 0 0 0 0 0 0 0 0 0 0 0 0 0 0 0 0 0
1859 1932 1908 1940 1787 1803 1831 1877 1938 1885 1903 1925 1914 1910 1851 1782 1630 1513 1433 1468 1380 931 684 645 737 698 562 707 711 664 402 514 598 581 499 510 589 467 291 92 45 8 0 20 61 58 28 0 0 0 0 0 0 0 0 0 0 0 0 0 0 0 0 0 0 0 0 0 0 0 0 0 0 0 0 0 0 0 0 0 0 0 0 0 0
1745 1782 1726 1716 1697 1728 1722 1832 1888 1887 1888 1885 1904 1877 1823 1632 1686 1573 1401 1345 1249 1112 984 901 855 554 312 488 625 623 588 611 650 626 592 540 518 324 167 107 70 59 66 67 16 0 0 0 0 0 0 0 0 0 0 0 0 0 0 0 0 0 0 0 0 0 0 0 0 0 0 0 0 0 0 0 0 0 0 0 0 0 0 0 0
1605 1691 1672 1604 1625 1646 1661 1650 1616 1624 1727 1801 1814 1780 1720 1685 1662 1489 1259 1036 825 740 752 773 771 624 244 0 438 585 520 376 344 483 582 626 448 257 216 128 108 118 121 76 39 0 0 0 0 0 0 0 0 0 0 0 0 0 0 0 0 0 0 0 0 0 0 0 0 0 0 0 0 0 0 0 0 0 0 0 0 0 0 0 0
1544 1472 1479 1424 1439 1498 1584 1636 1659 1610 1631 1658 1668 1631 1621 1573 1548 1517 1272 1055 905 814 849 694 704 646 376 137 244 246 246 242 331 362 478 508 426 245 167 123 141 152 133 36 46 18 0 0 0 0 0 0 0 0 2 1 0 0 0 0 0 0 0 0 0 0 0 0 1 0 0 0 0 0 0 0 0 0 0 0 0 0 0 0 0
1391 1384 1398 1425 1440 1436 1449 1517 1520 1549 1592 1543 1482 1479 1525 1523 1511 1410 1392 1188 983 835 678 660 600 618 513 228 155 0 48 144 236 333 365 424 434 373 348 232 134 154 54 0 0 0 0 0 13 25 22 5 0 0 2 0 0 0 0 0 0 0 0 0 0 0 0 0 0 0 0 0 0 0 0 0 0 0 0 0 0 4 5 1 0
1419 1465 1478 1446 1458 1496 1535 1502 1493 1519 1521 1504 1490 1414 1328 1355 1363 1317 1267 1167 1052 808 645 573 564 641 486 181 35 135 200 246 285 268 289 346 421 442 422 260 166 187 71 40 6 112 129 118 14 8 0 0 0 1 0 0 0 0 0 0 0 0 0 0 0 0 0 0 3 4 0 0 0 0 0 2 1 0 0 0 0 3 8 6 2
1254 1337 1350 1341 1322 1304 1350 1442 1495 1523 1544 1530 1456 1371 1308 1279 1265 1233 1170 1056 878 612 522 384 441 520 340 154 0 132 222 226 239 221 195 201 274 317 300 264 197 134 77 0 50 38 13 12 4 8 0 0 0 0 0 0 1 2 0 0 0 0 0 0 0 0 0 4 5 0 0 0 0 0 0 0 0 0 0 1 4 5 7 5 0
922 1004 1017 1067 1143 1205 1240 1248 1232 1253 1288 1353 1425 1414 1400 1381 1318 1213 1179 1203 886 526 423 394 382 421 294 119 69 37 40 99 124 114 153 182 254 286 258 194 124 122 105 122 62 23 23 31 8 0 0 0 0 0 0 0 2 0 0 0 0 0 0 0 0 0 2 1 0 0 1 3 1 0 0 0 0 0 0 0 2 4 2 2 0
720 786 788 803 807 882 900 879 904 971 1034 1107 1101 1124 1158 1193 1282 1331 1348 1227 957 659 344 333 441 451 296 27 32 94 132 176 138 62 58 75 203 252 204 150 125 21 40 60 141 135 75 7 3 6 7 0 0 0 0 0 0 1 1 0 0 0 0 0 0 0 0 0 0 0 0 0 0 0 0 0 0 0 0 0 1 0 0 0 0
290 382 474 499 477 482 476 486 528 596 655 726 768 752 763 829 920 953 822 926 849 492 106 5 101 251 113 3 0 124 138 34 33 60 143 201 231 237 194 32 48 8 21 135 72 43 22 10 2 0 0 0 1 11 1 1 0 0 0 0 0 0 0 0 0 0 0 0 0 0 0 0 0 0 0 0 0 0 0 0 0 2 0 1 0
190 172 201 212 267 315 359 382 411 491 564 612 600 548 560 680 728 722 822 785 594 428 224 10 2 110 114 1 0 2 2 0 98 122 139 199 208 192 220 122 158 28 79 0 0 3 0 0 1 0 0 0 0 0 0 0 0 0 0 0 0 0 0 0 0 0 1 0 0 0 0 0 0 0 0 0 1 2 1 0 0 0 0 0 0
254 276 257 191 154 139 145 222 342 424 456 460 487 533 578 583 586 592 385 232 184 92 28 79 8 10 0 53 21 20 3 0 1 18 132 238 242 192 196 189 172 98 3 23 4 16 53 60 22 1 0 0 2 2 0 0 0 0 0 0 0 0 0 0 0 0 0 0 0 0 0 0 0 0 0 0 0 0 0 0 0 0 0 0 0
23 32 24 97 187 186 202 217 278 315 318 293 279 306 394 408 412 88 251 99 2 9 30 16 20 7 53 9 17 64 11 0 131 169 235 287 264 224 182 0 0 2 31 19 11 76 60 36 7 0 0 0 0 0 0 0 0 0 0 0 0 0 0 0 0 2 2 1 0 0 0 0 0 0 0 0 0 0 0 0 0 0 0 0 0
48 99 69 32 31 28 14 7 197 257 271 220 161 135 134 28 0 234 135 0 0 8 4 34 44 19 102 85 61 0 0 0 0 100 160 189 178 134 55 0 0 0 4 42 60 54 34 28 0 0 0 0 0 0 0 0 0 0 0 0 0 0 0 0 1 2 1 0 0 0 0 0 0 0 0 0 0 0 0 0 0 0 0 0 0
3 22 42 64 73 74 46 27 17 62 119 42 74 47 54 53 46 58 50 14 1 4 4 20 43 117 112 113 46 27 0 60 146 180 152 144 165 162 137 12 17 12 83 64 57 50 8 0 0 0 0 0 0 0 0 0 0 0 0 0 0 0 0 0 0 0 0 0 0 0 0 0 0 0 0 0 0 0 0 0 1 0 0 0 0
3 3 6 8 5 10 20 23 13 16 50 46 24 6 0 27 44 23 26 44 49 69 82 102 117 134 136 175 210 216 242 279 258 189 146 148 174 105 60 76 56 43 42 50 23 4 0 0 0 0 0 0 0 0 0 0 0 0 0 0 0 1 1 1 0 0 0 0 0 0 0 0 0 0 0 0 0 0 0 0 0 0 0 0 0
10 6 6 8 13 11 14 23 28 32 28 26 19 24 37 40 34 33 31 41 44 64 56 4 95 125 133 45 36 71 91 108 78 76 143 130 79 72 105 129 90 53 27 17 2 0 0 0 0 0 0 0 0 0 0 0 1 0 0 0 0 0 0 0 0 0 0 0 0 0 0 0 0 0 0 0 0 0 0 0 0 0 0 0 0
73 6 6 35 0 5 6 11 14 18 21 22 10 9 31 27 17 5 7 28 26 17 0 5 27 94 86 82 90 34 21 9 55 35 54 70 57 98 92 83 56 27 0 0 0 0 0 0 0 0 0 0 1 1 2 1 2 1 1 0 0 0 0 0 0 0 0 0 0 0 0 0 0 0 0 0 0 0 0 0 0 0 0 0 0
10 22 26 13 19 9 6 4 2 2 2 3 5 7 8 9 11 11 5 11 11 18 12 12 25 41 38 15 32 64 6 15 33 45 77 75 65 50 39 11 0 0 0 0 0 0 0 0 1 3 1 0 1 5 4 3 3 2 0 0 0 0 0 0 0 0 0 0 0 0 0 0 0 0 0 0 0 0 0 0 0 0 0 0 0
0 0 1 3 18 24 16 13 10 2 1 0 0 0 0 0 0 0 15 33 9 20 36 38 47 39 56 50 36 42 88 116 86 52 24 12 3 0 0 0 0 0 0 0 0 0 0 4 6 3 0 1 4 6 3 2 0 0 0 0 0 0 0 0 0 0 0 0 0 0 0 0 0 0 0 0 0 0 0 0 0 0 0 0 0
0 0 0 0 1 9 22 14 15 14 2 0 0 0 0 0 0 0 0 0 0 10 16 13 12 23 37 66 88 57 30 48 28 80 52 5 0 23 18 4 1 0 5 0 0 5 7 6 5 3 2 3 2 1 0 0 0 0 0 0 0 0 1 0 0 0 0 0 0 0 0 2 0 0 0 0 0 0 0 0 0 0 0 0 0
2 0 0 3 11 16 18 12 5 7 6 6 3 4 4 2 0 0 0 1 2 7 26 39 29 32 4 8 4 7 22 27 18 13 10 2 8 2 0 0 0 0 0 0 0 0 2 0 0 0 2 2 2 2 2 1 1 0 2 4 4 3 3 5 6 8 8 4 1 0 0 0 0 0 0 0 0 0 0 0 0 0 0 0 0
Wind_Speed
33 30 30 28 28 28 32 29 25 27 29 31 34 35 37 39 38 38 38 34 30 29 29 31 30 34 34 31 29 28 25 25 24 23 22 21 20 19 21 22 nan nan nan nan nan nan nan nan nan nan nan nan nan nan nan nan nan nan nan nan nan nan nan nan nan nan nan nan nan nan nan nan nan nan nan nan nan nan nan nan nan nan nan nan nan
34 30 30 29 28 29 30 28 28 30 32 32 32 36 40 40 39 40 38 35 31 30 32 32 31 33 34 33 29 28 26 25 25 23 22 21 21 19 21 nan nan nan nan nan nan nan nan nan nan nan nan nan nan nan nan nan nan nan nan nan nan nan nan nan nan nan nan nan nan nan nan nan nan nan nan nan nan nan nan nan nan nan nan nan nan
35 33 31 29 30 32 34 30 30 30 32 31 29 34 40 39 39 41 39 36 33 32 33 33 32 33 35 33 30 27 26 26 24 22 21 22 21 21 21 nan nan nan nan nan nan nan nan nan nan nan nan nan nan nan nan nan nan nan nan nan nan nan nan nan nan nan nan nan nan nan nan nan nan nan nan nan nan nan nan nan nan nan nan nan nan
39 37 34 31 31 32 33 32 31 32 31 29 29 32 38 39 40 41 39 36 36 34 34 35 32 33 36 34 31 28 26 26 24 22 21 21 21 22 nan nan nan nan nan nan nan nan nan nan nan nan nan nan nan nan nan nan nan nan nan nan nan nan nan nan nan nan nan nan nan nan nan nan nan nan nan nan nan nan nan nan nan nan nan nan nan
39 39 37 36 34 33 33 33 32 30 30 29 28 29 36 40 42 41 39 37 38 37 35 35 32 33 36 35 32 29 27 26 24 22 21 21 21 22 nan nan nan nan nan nan nan nan nan nan nan nan nan nan nan nan nan nan nan nan nan nan nan nan nan nan nan nan nan nan nan nan nan nan nan nan nan nan nan nan nan nan nan nan nan nan nan
41 39 39 38 37 35 35 34 31 29 30 29 27 30 36 41 43 41 39 38 39 38 37 35 32 32 36 36 32 29 26 26 24 23 23 22 21 22 nan nan nan nan nan nan nan nan nan nan nan nan nan nan nan nan nan nan nan nan nan nan nan nan nan nan nan nan nan nan nan nan nan nan nan nan nan nan nan nan nan nan nan nan nan nan nan
45 43 41 39 38 36 36 33 29 29 32 30 31 34 39 42 43 41 39 38 38 38 36 35 33 33 35 35 32 28 26 26 25 24 23 23 23 24 23 nan nan nan nan nan nan nan nan nan nan nan nan nan nan nan nan nan nan nan nan nan nan nan nan nan nan nan nan nan nan nan nan nan nan nan nan nan nan nan nan nan nan nan nan nan nan
46 44 43 42 41 37 34 28 26 30 35 32 33 37 41 44 42 40 38 35 34 36 36 35 35 34 36 36 32 28 26 26 25 25 24 24 24 24 24 nan nan nan nan nan nan nan nan nan nan nan nan nan nan nan nan nan nan nan nan nan nan nan nan nan nan nan nan nan nan nan nan nan nan nan nan nan nan nan nan nan nan nan nan nan nan
45 44 44 44 42 38 33 29 30 31 33 32 35 39 41 45 43 38 35 31 32 35 36 36 36 35 36 36 32 28 27 27 26 25 24 24 24 25 25 24 25 nan nan nan nan nan nan nan nan nan nan nan nan nan nan nan nan nan nan nan nan nan nan nan nan nan nan nan nan nan nan nan nan nan nan nan nan nan nan nan nan nan nan nan nan
45 45 45 44 43 38 32 32 30 30 32 34 36 40 42 43 39 33 31 30 32 36 37 37 37 36 36 36 33 30 27 26 28 29 26 24 25 25 25 25 26 nan nan nan nan nan nan nan nan nan nan nan nan nan nan nan nan nan nan nan nan nan nan nan nan nan nan nan nan nan nan nan nan nan nan nan nan nan nan nan nan nan nan nan nan
45 45 44 44 42 38 34 32 30 29 31 35 38 42 42 41 37 32 30 30 31 36 37 38 37 36 37 37 35 30 28 28 33 29 27 26 26 26 27 27 27 28 nan nan nan nan nan nan nan nan nan nan nan nan nan nan nan nan nan nan nan nan nan nan nan nan nan nan nan nan nan nan nan nan nan nan nan nan nan nan nan nan nan nan nan
43 44 43 44 41 38 36 33 30 32 34 36 38 40 44 43 38 32 31 32 31 34 38 38 38 38 37 36 35 31 27 32 34 31 28 28 27 28 28 28 28 nan nan nan nan nan nan nan nan nan nan nan nan nan nan nan nan nan nan nan nan nan nan nan nan nan nan nan nan nan nan nan nan nan nan nan nan nan nan nan nan nan nan nan nan
43 44 44 42 39 38 36 33 32 34 37 37 42 44 42 42 36 33 34 33 33 33 38 39 38 38 37 37 35 32 28 35 34 33 30 29 29 29 29 30 30 nan nan nan nan nan nan nan nan nan nan nan nan nan nan nan nan nan nan nan nan nan nan nan nan nan nan nan nan nan nan nan nan nan nan nan nan nan nan nan nan nan nan nan nan
44 43 42 40 39 37 35 35 35 40 40 43 47 44 42 39 36 34 36 36 33 33 38 40 39 38 37 37 35 33 30 36 35 34 31 29 30 29 30 32 31 31 nan nan nan nan nan nan nan nan nan nan nan nan nan nan nan nan nan nan nan nan nan nan nan nan nan nan nan nan nan nan nan nan nan nan nan nan nan nan nan nan nan nan nan
42 41 39 39 37 35 34 36 37 42 42 45 47 41 41 39 36 35 36 35 32 33 37 40 40 39 39 39 36 34 33 39 37 35 32 29 30 29 31 33 32 33 34 36 37 37 nan nan nan nan nan 34 31 32 nan nan nan nan nan nan nan nan nan nan nan nan nan nan nan nan nan nan nan nan nan nan nan nan nan nan nan nan nan nan nan
40 39 38 38 37 37 35 38 40 41 42 46 47 42 42 38 34 34 36 36 34 34 35 40 41 40 39 40 37 34 36 40 37 36 33 29 31 29 32 34 34 35 36 38 39 38 nan nan nan nan 34 33 33 nan nan nan nan nan nan nan nan nan nan nan nan nan nan nan nan nan nan nan nan nan nan nan nan nan nan nan nan nan nan nan nan
39 38 38 38 36 36 37 39 43 44 44 44 44 43 41 36 34 36 36 35 35 34 34 38 40 40 40 38 37 34 37 37 38 37 35 31 30 30 33 34 34 35 37 39 39 39 37 nan nan nan 34 32 36 nan nan nan nan nan nan nan nan nan nan nan nan nan nan nan nan nan nan nan nan nan nan nan nan nan nan nan nan nan nan nan nan
40 39 37 36 34 35 37 41 46 45 42 40 42 42 38 34 36 42 39 36 36 33 36 38 40 40 39 36 36 36 36 38 40 38 36 34 31 32 34 35 36 36 37 39 38 38 37 37 nan nan 35 nan nan nan nan nan nan nan nan nan nan nan nan nan nan nan nan nan nan nan nan nan nan nan nan nan nan nan nan nan nan nan nan nan nan
39 39 38 36 35 35 38 40 43 41 42 42 44 39 33 33 41 43 42 38 35 35 37 36 37 39 38 36 39 35 37 41 41 39 38 36 32 34 36 36 37 38 39 39 38 36 37 36 34 35 33 37 nan 38 nan nan nan nan nan nan nan nan nan nan nan nan nan nan nan nan nan nan nan nan nan nan nan nan nan nan nan nan nan nan nan
39 39 39 38 37 39 43 42 43 42 41 44 43 36 35 39 41 43 40 39 36 36 37 36 37 38 39 38 38 34 38 40 39 41 39 36 32 33 35 36 38 40 40 41 40 36 35 34 35 33 37 41 nan nan nan nan nan nan nan nan nan nan nan nan nan nan nan nan nan nan nan nan nan nan nan nan nan nan nan nan nan nan nan nan nan
39 39 38 38 37 37 40 42 43 42 44 44 41 39 37 40 39 40 39 37 36 34 35 36 39 38 38 36 37 36 39 43 41 41 40 37 32 30 35 36 39 41 40 41 41 38 34 33 34 36 40 39 38 38 nan nan nan nan nan nan nan nan nan nan nan nan nan nan nan nan nan nan nan nan nan nan nan nan nan nan nan nan nan nan nan
38 39 38 36 35 35 37 40 41 43 44 43 41 41 39 38 37 37 37 36 36 36 38 38 38 37 35 36 38 38 41 43 42 39 41 40 35 30 35 37 40 43 41 nan 44 40 32 32 32 38 38 37 37 nan nan nan nan nan nan nan nan nan nan nan nan nan nan nan nan nan nan nan nan nan nan nan nan nan nan nan nan nan nan nan nan
36 37 36 34 34 34 37 40 45 47 46 43 42 42 40 38 35 34 34 35 37 39 40 41 41 41 40 38 39 40 41 40 43 40 41 41 36 31 34 39 42 42 43 nan nan 38 30 29 35 41 36 36 nan nan nan nan nan nan nan nan nan nan nan nan nan nan nan nan nan nan nan nan nan nan nan nan nan nan nan nan nan nan nan nan nan
37 37 38 36 37 38 42 43 46 48 45 44 45 42 38 36 34 32 33 34 36 37 39 41 43 47 44 42 42 41 39 41 43 42 40 40 38 35 37 40 44 42 44 nan nan 32 28 27 nan 38 35 nan nan nan nan nan nan nan nan nan nan nan nan nan nan nan nan nan nan nan nan nan nan nan nan nan nan nan nan nan nan nan nan nan nan
35 35 37 38 43 40 42 42 43 47 47 45 43 39 36 36 36 36 36 35 35 37 40 41 42 44 45 45 43 45 44 43 44 41 40 40 40 38 38 42 44 44 nan nan nan nan 28 36 39 34 34 nan nan nan nan nan nan nan nan nan nan nan nan nan nan nan nan nan nan nan nan nan nan nan nan nan nan nan nan nan nan nan nan nan nan
37 37 39 41 41 41 43 43 44 47 47 42 39 36 38 38 39 40 39 38 38 40 41 43 44 45 46 44 46 48 47 47 45 43 40 39 38 38 40 43 46 nan nan nan nan nan 33 35 34 34 34 nan nan nan nan nan nan nan nan nan nan nan nan nan nan nan nan nan nan nan nan nan nan nan nan nan nan nan nan nan nan nan nan nan nan
39 39 40 39 40 41 43 44 45 44 43 38 35 35 38 39 41 42 41 41 42 42 43 44 46 46 46 46 49 50 48 47 46 44 40 39 38 37 37 42 45 nan nan nan nan nan nan nan 28 30 nan nan nan nan nan nan nan nan nan nan nan nan nan nan nan nan nan nan nan nan nan nan nan nan nan nan nan nan nan nan nan nan nan nan nan
38 38 37 39 39 42 40 43 42 40 38 36 36 37 40 42 41 39 38 40 43 43 44 46 47 47 47 46 47 46 43 41 42 43 41 40 40 40 39 39 nan nan nan nan nan nan nan nan nan nan nan nan nan nan nan nan nan nan nan nan nan nan nan nan nan nan nan nan nan nan nan nan nan nan nan nan nan nan nan nan nan nan nan nan nan
38 35 36 37 39 43 45 45 42 40 37 35 36 38 40 41 39 35 37 41 42 44 44 46 47 47 46 44 43 40 37 36 37 43 45 46 44 41 38 nan nan nan nan nan nan nan nan nan nan nan nan nan nan nan nan nan nan nan nan nan nan nan nan nan nan nan nan nan nan nan nan nan nan nan nan nan nan nan nan nan nan nan nan nan nan
36 35 36 37 38 42 45 45 41 41 39 38 40 42 48 48 38 37 36 37 43 47 50 46 43 41 42 41 42 44 39 38 50 52 48 46 43 40 39 nan nan nan nan nan nan nan nan nan nan nan nan nan nan nan nan nan nan nan nan nan nan nan nan nan nan nan nan nan nan nan nan nan nan nan nan nan nan nan nan nan nan nan nan nan nan
39 38 38 36 37 39 39 40 40 42 41 41 40 41 43 47 53 44 36 45 45 47 47 47 47 42 41 42 41 44 53 56 53 46 45 44 41 37 38 41 nan nan nan nan nan nan nan nan nan nan nan nan nan nan nan nan nan nan nan nan nan nan nan nan nan nan nan nan nan nan nan nan nan nan nan nan nan nan nan nan nan nan nan nan nan
40 39 37 38 41 39 37 39 42 42 41 40 41 41 43 46 47 52 50 49 50 53 50 48 44 40 38 nan 48 49 52 51 46 43 40 37 36 36 38 39 36 33 31 nan nan nan nan nan nan nan nan nan nan nan nan nan nan nan nan nan nan nan nan nan nan nan nan nan nan nan nan nan nan nan nan nan nan nan nan nan nan nan nan nan nan
41 40 41 43 43 42 42 44 44 42 41 41 43 45 45 46 49 51 51 53 52 49 47 46 46 44 42 44 47 50 51 50 49 45 41 35 34 35 37 37 35 32 33 nan nan nan nan nan nan nan nan nan nan nan nan nan nan nan nan nan nan nan nan nan nan nan nan nan nan nan nan nan nan nan nan nan nan nan nan nan nan nan nan nan nan
44 45 46 48 48 47 46 47 47 46 46 46 47 48 48 49 51 51 51 50 52 52 50 46 45 45 43 45 49 nan nan 53 51 49 45 42 40 40 40 36 35 31 nan nan nan nan nan nan nan nan nan nan nan nan nan nan nan nan nan nan nan nan nan nan nan nan nan nan nan nan nan nan nan nan nan nan nan nan nan nan nan nan nan nan nan
53 56 54 52 50 51 51 52 52 52 52 52 53 53 52 50 50 49 47 48 48 48 47 46 44 44 43 44 nan 53 55 55 54 51 48 46 45 45 44 36 31 26 nan nan nan 27 27 29 nan nan nan nan nan nan nan nan nan nan nan nan nan nan nan nan nan nan nan nan nan nan nan nan nan nan nan nan nan nan nan nan nan nan nan nan nan
61 60 59 58 58 56 57 59 58 56 55 55 56 54 54 51 50 47 47 48 50 51 49 47 45 42 45 45 nan 52 55 58 53 44 39 40 43 43 33 27 28 27 nan nan nan nan nan nan nan nan nan nan nan nan nan nan nan nan nan nan nan nan nan nan nan nan nan nan nan nan nan nan nan nan nan nan nan nan nan nan nan nan nan nan nan
56 57 58 58 59 60 61 60 58 58 60 61 60 58 54 51 49 48 47 47 48 49 48 46 47 46 44 45 nan nan nan nan 49 40 37 37 37 33 30 28 26 28 28 27 nan nan nan nan nan nan nan nan nan nan nan nan nan nan nan nan nan nan nan nan nan nan nan nan nan nan nan nan nan nan nan nan nan nan nan nan nan nan nan nan nan
44 45 46 48 51 54 54 54 56 59 57 55 54 52 50 48 46 46 45 44 46 47 46 43 44 47 46 nan nan nan 54 55 53 nan nan nan 33 29 30 29 28 nan nan nan 31 31 nan nan nan nan nan nan nan nan nan nan nan nan nan nan nan nan nan nan nan nan nan nan nan nan nan nan nan nan nan nan nan nan nan nan nan nan nan nan nan
33 37 39 41 41 42 46 51 52 52 51 50 48 46 45 44 43 42 42 43 44 44 44 nan 45 46 48 nan nan 49 48 nan nan nan 37 34 31 30 30 nan nan nan nan 32 nan nan nan nan nan nan nan nan nan nan nan nan nan nan nan nan nan nan nan nan nan nan nan nan nan nan nan nan nan nan nan nan nan nan nan nan nan nan nan nan nan
28 28 30 31 31 35 37 40 42 43 42 42 40 40 40 39 40 41 43 44 44 46 46 nan nan 44 45 nan nan nan nan nan nan 36 33 32 30 30 28 28 30 nan nan nan nan nan nan nan nan nan nan nan nan nan nan nan nan nan nan nan nan nan nan nan nan nan nan nan nan nan nan nan nan nan nan nan nan nan nan nan nan nan nan nan nan
30 31 31 31 31 31 32 32 33 34 35 36 38 38 37 39 41 43 43 45 49 nan nan nan nan nan nan nan nan nan nan nan nan nan 35 34 32 30 30 32 34 nan nan nan nan nan nan nan nan nan nan nan nan nan nan nan nan nan nan nan nan nan nan nan nan nan nan nan nan nan nan nan nan nan nan nan nan nan nan nan nan nan nan nan nan
nan nan nan nan 33 33 33 34 34 35 36 37 38 38 40 42 44 nan 47 nan nan nan nan nan nan nan nan nan nan nan nan nan 40 39 37 34 32 30 32 nan nan nan nan nan nan nan nan nan nan nan nan nan nan nan nan nan nan nan nan nan nan nan nan nan nan nan nan nan nan nan nan nan nan nan nan nan nan nan nan nan nan nan nan nan nan
nan nan nan nan nan nan nan nan 37 37 39 41 43 46 47 nan nan 49 50 nan nan nan nan nan nan nan 40 nan nan nan nan nan nan 39 37 35 33 33 nan nan nan nan nan nan nan nan nan nan nan nan nan nan nan nan nan nan nan nan nan nan nan nan nan nan nan nan nan nan nan nan nan nan nan nan nan nan nan nan nan nan nan nan nan nan nan
nan nan nan nan nan nan nan nan nan nan 44 nan nan nan nan nan nan nan nan nan nan nan nan nan nan 41 38 35 nan nan nan nan 39 37 36 34 34 35 35 nan nan nan nan nan nan nan nan nan nan nan nan nan nan nan nan nan nan nan nan nan nan nan nan nan nan nan nan nan nan nan nan nan nan nan nan nan nan nan nan nan nan nan nan nan nan
nan nan nan nan nan nan nan nan nan nan nan nan nan nan nan nan nan nan nan nan nan nan nan 41 36 34 32 30 29 31 35 38 37 35 34 33 34 32 nan nan nan nan nan nan nan nan nan nan nan nan nan nan nan nan nan nan nan nan nan nan nan nan nan nan nan nan nan nan nan nan nan nan nan nan nan nan nan nan nan nan nan nan nan nan nan
nan nan nan nan nan nan nan nan nan nan nan nan nan nan nan nan nan nan nan nan nan nan nan nan nan 30 29 nan nan nan nan 29 nan nan 32 32 nan nan 32 33 nan nan nan nan nan nan nan nan nan nan nan nan nan nan nan nan nan nan nan nan nan nan nan nan nan nan nan nan nan nan nan nan nan nan nan nan nan nan nan nan nan nan nan nan nan
nan nan nan nan nan nan nan nan nan nan nan nan nan nan nan nan nan nan nan nan nan nan nan nan nan nan nan nan nan nan nan nan nan nan nan nan nan nan nan nan nan nan nan nan nan nan nan nan nan nan nan nan nan nan nan nan nan nan nan nan nan nan nan nan nan nan nan nan nan nan nan nan nan nan nan nan nan nan nan nan nan nan nan nan nan
nan nan nan nan nan nan nan nan nan nan nan nan nan nan nan nan nan nan nan nan nan nan nan nan nan nan nan nan nan nan nan nan nan nan nan nan nan nan nan nan nan nan nan nan nan nan nan nan nan nan nan nan nan nan nan nan nan nan nan nan nan nan nan nan nan nan nan nan nan nan nan nan nan nan nan nan nan nan nan nan nan nan nan nan nan
nan nan nan nan nan nan nan nan nan nan nan nan nan nan nan nan nan nan nan nan nan nan nan nan nan nan nan nan nan nan nan 35 nan nan nan nan nan nan nan nan nan nan nan nan nan nan nan nan nan nan nan nan nan nan nan nan nan nan nan nan nan nan nan nan nan nan nan nan nan nan nan nan nan nan nan nan nan nan nan nan nan nan nan nan nan
nan nan nan nan nan nan nan nan nan nan nan nan nan nan nan nan nan nan nan nan nan nan nan nan nan nan nan nan nan nan nan nan nan nan nan nan nan nan nan nan nan nan nan nan nan nan nan nan nan nan nan nan nan nan nan nan nan nan nan nan nan nan nan nan nan nan nan nan nan nan nan nan nan nan nan nan nan nan nan nan nan nan nan nan nan
nan nan nan nan nan nan nan nan nan nan nan nan nan nan nan nan nan nan nan nan nan nan nan nan nan nan nan nan nan nan nan nan nan nan nan nan nan nan nan nan nan nan nan nan nan nan nan nan nan nan nan nan nan nan nan nan nan nan nan nan nan nan nan nan nan nan nan nan nan nan nan nan nan nan nan nan nan nan nan nan nan nan nan nan nan
Wind_Direction
227 234 237 237 241 248 253 258 264 265 272 274 277 283 284 286 290 292 294 298 298 299 303 301 299 293 296 300 306 303 303 296 294 297 302 303 303 305 303 308 nan nan nan nan nan nan nan nan nan nan nan nan nan nan nan nan nan nan nan nan nan nan nan nan nan nan nan nan nan nan nan nan nan nan nan nan nan nan nan nan nan nan nan nan nan
226 234 235 233 240 246 251 255 253 259 266 272 279 280 280 285 288 289 294 296 298 298 298 295 293 293 294 299 304 304 299 295 295 297 302 302 303 299 301 nan nan nan nan nan nan nan nan nan nan nan nan nan nan nan nan nan nan nan nan nan nan nan nan nan nan nan nan nan nan nan nan nan nan nan nan nan nan nan nan nan nan nan nan nan nan
224 230 234 233 237 241 246 248 250 260 265 268 276 278 278 283 286 287 290 292 294 293 296 295 292 291 291 296 302 302 298 294 294 299 302 305 305 301 301 nan nan nan nan nan nan nan nan nan nan nan nan nan nan nan nan nan nan nan nan nan nan nan nan nan nan nan nan nan nan nan nan nan nan nan nan nan nan nan nan nan nan nan nan nan nan
226 232 234 235 236 239 245 247 250 256 260 265 274 275 276 279 281 285 289 290 290 292 296 294 290 289 289 294 298 298 297 292 295 300 304 305 304 304 nan nan nan nan nan nan nan nan nan nan nan nan nan nan nan nan nan nan nan nan nan nan nan nan nan nan nan nan nan nan nan nan nan nan nan nan nan nan nan nan nan nan nan nan nan nan nan
231 234 237 239 238 240 248 250 251 257 260 261 270 275 275 277 278 283 286 290 290 292 292 291 288 287 285 291 296 298 297 293 296 300 299 301 304 303 nan nan nan nan nan nan nan nan nan nan nan nan nan nan nan nan nan nan nan nan nan nan nan nan nan nan nan nan nan nan nan nan nan nan nan nan nan nan nan nan nan nan nan nan nan nan nan
233 234 235 238 239 242 247 251 255 257 258 257 266 270 271 274 276 280 287 291 290 291 291 287 284 284 284 289 295 297 296 292 295 299 300 301 303 303 nan nan nan nan nan nan nan nan nan nan nan nan nan nan nan nan nan nan nan nan nan nan nan nan nan nan nan nan nan nan nan nan nan nan nan nan nan nan nan nan nan nan nan nan nan nan nan
234 236 237 238 238 240 245 251 252 252 248 249 257 265 269 273 276 283 285 290 290 289 288 286 281 281 282 285 292 296 295 293 294 296 299 303 306 305 305 nan nan nan nan nan nan nan nan nan nan nan nan nan nan nan nan nan nan nan nan nan nan nan nan nan nan nan nan nan nan nan nan nan nan nan nan nan nan nan nan nan nan nan nan nan nan
234 236 237 238 238 240 242 245 246 245 243 247 256 262 266 270 276 281 284 289 290 289 286 285 279 278 279 283 289 293 291 288 290 292 296 303 305 306 304 nan nan nan nan nan nan nan nan nan nan nan nan nan nan nan nan nan nan nan nan nan nan nan nan nan nan nan nan nan nan nan nan nan nan nan nan nan nan nan nan nan nan nan nan nan nan
234 236 237 238 239 238 237 236 238 242 244 248 255 262 268 269 274 277 282 287 285 286 284 283 280 280 279 282 288 290 285 283 283 288 295 304 306 305 303 302 302 nan nan nan nan nan nan nan nan nan nan nan nan nan nan nan nan nan nan nan nan nan nan nan nan nan nan nan nan nan nan nan nan nan nan nan nan nan nan nan nan nan nan nan nan
234 237 238 238 237 235 232 231 234 242 245 248 256 262 267 272 277 280 286 288 286 283 283 282 281 281 281 282 286 284 279 275 280 294 297 301 304 300 299 299 300 nan nan nan nan nan nan nan nan nan nan nan nan nan nan nan nan nan nan nan nan nan nan nan nan nan nan nan nan nan nan nan nan nan nan nan nan nan nan nan nan nan nan nan nan
236 239 239 238 238 233 228 228 233 241 245 246 252 260 267 273 275 281 285 287 287 283 282 282 280 280 280 281 283 281 276 272 287 292 298 302 302 300 299 298 297 296 nan nan nan nan nan nan nan nan nan nan nan nan nan nan nan nan nan nan nan nan nan nan nan nan nan nan nan nan nan nan nan nan nan nan nan nan nan nan nan nan nan nan nan
237 238 238 237 236 232 226 227 234 239 242 246 252 259 261 266 273 282 287 287 286 282 282 282 279 277 274 278 279 280 278 275 288 291 293 297 299 298 298 296 295 nan nan nan nan nan nan nan nan nan nan nan nan nan nan nan nan nan nan nan nan nan nan nan nan nan nan nan nan nan nan nan nan nan nan nan nan nan nan nan nan nan nan nan nan
236 237 238 238 236 230 226 227 233 238 240 244 249 254 263 267 273 283 285 284 280 284 281 279 277 276 274 276 277 278 273 278 288 291 291 297 299 300 298 297 297 nan nan nan nan nan nan nan nan nan nan nan nan nan nan nan nan nan nan nan nan nan nan nan nan nan nan nan nan nan nan nan nan nan nan nan nan nan nan nan nan nan nan nan nan
236 237 238 239 236 230 227 229 234 236 240 243 249 253 261 271 277 276 277 277 280 281 278 278 275 275 274 275 276 278 275 278 286 289 291 297 299 300 298 300 299 300 nan nan nan nan nan nan nan nan nan nan nan nan nan nan nan nan nan nan nan nan nan nan nan nan nan nan nan nan nan nan nan nan nan nan nan nan nan nan nan nan nan nan nan
236 235 236 237 235 230 228 230 235 237 239 243 249 258 264 268 274 276 276 278 278 279 277 275 272 271 272 270 272 276 271 283 286 290 292 297 301 300 296 296 299 301 301 299 296 295 nan nan nan nan nan 310 310 313 nan nan nan nan nan nan nan nan nan nan nan nan nan nan nan nan nan nan nan nan nan nan nan nan nan nan nan nan nan nan nan
236 235 234 235 233 230 229 232 237 239 241 244 250 259 265 272 279 275 272 272 270 272 272 271 273 273 272 270 270 275 272 288 287 291 293 296 300 293 293 296 299 301 301 300 296 293 nan nan nan nan 305 309 307 nan nan nan nan nan nan nan nan nan nan nan nan nan nan nan nan nan nan nan nan nan nan nan nan nan nan nan nan nan nan nan nan
234 236 235 237 237 234 232 233 237 241 243 248 254 260 266 272 274 270 274 271 267 271 274 272 270 271 274 273 273 276 273 286 289 289 290 295 292 290 291 296 299 301 302 302 299 293 290 nan nan nan 303 306 300 nan nan nan nan nan nan nan nan nan nan nan nan nan nan nan nan nan nan nan nan nan nan nan nan nan nan nan nan nan nan nan nan
233 236 237 240 241 238 237 239 240 244 248 255 258 260 266 270 267 258 265 270 267 271 271 269 268 271 275 277 278 278 275 282 288 289 292 295 295 291 291 296 299 301 303 305 301 292 288 293 nan nan 301 nan nan nan nan nan nan nan nan nan nan nan nan nan nan nan nan nan nan nan nan nan nan nan nan nan nan nan nan nan nan nan nan nan nan
234 238 240 240 240 239 239 242 246 247 246 251 254 261 267 266 257 257 257 263 266 268 269 272 273 272 275 277 278 283 276 283 293 294 293 297 295 288 292 295 299 301 303 306 305 293 285 285 293 293 298 294 nan 308 nan nan nan nan nan nan nan nan nan nan nan nan nan nan nan nan nan nan nan nan nan nan nan nan nan nan nan nan nan nan nan
233 237 239 238 236 236 237 243 248 247 248 250 254 260 261 257 259 258 262 263 266 269 272 276 279 274 274 278 278 283 277 280 291 295 295 298 302 290 292 295 298 301 302 304 306 298 285 284 288 289 290 296 nan nan nan nan nan nan nan nan nan nan nan nan nan nan nan nan nan nan nan nan nan nan nan nan nan nan nan nan nan nan nan nan nan
231 234 236 237 237 239 242 244 244 245 247 250 251 252 257 257 263 263 266 267 270 272 278 278 275 276 273 279 282 284 278 281 288 297 297 300 303 296 293 295 294 296 298 301 305 301 285 279 286 288 290 299 304 313 nan nan nan nan nan nan nan nan nan nan nan nan nan nan nan nan nan nan nan nan nan nan nan nan nan nan nan nan nan nan nan
229 232 235 236 237 241 243 242 242 242 246 250 252 250 253 260 265 267 268 273 276 277 278 280 283 284 284 282 279 279 277 285 288 298 300 299 301 296 289 291 292 297 299 nan 304 299 281 273 280 287 293 299 307 nan nan nan nan nan nan nan nan nan nan nan nan nan nan nan nan nan nan nan nan nan nan nan nan nan nan nan nan nan nan nan nan
228 232 233 234 237 238 236 239 238 239 243 249 252 253 256 259 267 273 277 280 280 281 280 280 281 280 283 284 281 281 280 284 287 291 298 298 299 293 288 289 292 296 296 nan nan 294 274 270 274 286 293 300 nan nan nan nan nan nan nan nan nan nan nan nan nan nan nan nan nan nan nan nan nan nan nan nan nan nan nan nan nan nan nan nan nan
228 231 231 230 230 230 231 235 239 240 245 247 249 253 258 257 259 270 278 280 277 280 276 276 278 274 283 283 282 284 282 280 284 293 293 298 296 293 288 288 291 292 293 nan nan 281 268 270 nan 289 295 nan nan nan nan nan nan nan nan nan nan nan nan nan nan nan nan nan nan nan nan nan nan nan nan nan nan nan nan nan nan nan nan nan nan
230 232 232 227 225 229 232 236 241 241 243 248 250 255 260 261 259 262 269 276 281 280 276 276 276 276 280 278 280 278 279 277 275 282 291 295 298 294 292 291 294 291 nan nan nan nan 261 269 279 291 299 nan nan nan nan nan nan nan nan nan nan nan nan nan nan nan nan nan nan nan nan nan nan nan nan nan nan nan nan nan nan nan nan nan nan
230 231 228 227 227 231 234 238 243 245 245 248 254 256 258 260 262 264 268 272 278 280 278 277 278 279 281 278 277 278 277 269 270 274 280 288 293 297 297 293 295 nan nan nan nan nan 268 277 286 294 304 nan nan nan nan nan nan nan nan nan nan nan nan nan nan nan nan nan nan nan nan nan nan nan nan nan nan nan nan nan nan nan nan nan nan
231 231 231 230 231 233 237 239 242 246 248 253 257 258 254 258 263 266 271 277 278 278 277 277 279 282 280 276 274 272 269 268 268 272 280 286 288 287 285 284 288 nan nan nan nan nan nan nan 281 293 nan nan nan nan nan nan nan nan nan nan nan nan nan nan nan nan nan nan nan nan nan nan nan nan nan nan nan nan nan nan nan nan nan nan nan
228 228 230 229 229 231 235 241 243 242 246 251 253 254 256 260 266 272 280 283 283 287 287 286 285 281 277 275 274 271 269 271 272 275 282 285 281 278 278 281 nan nan nan nan nan nan nan nan nan nan nan nan nan nan nan nan nan nan nan nan nan nan nan nan nan nan nan nan nan nan nan nan nan nan nan nan nan nan nan nan nan nan nan nan nan
228 228 228 229 229 229 231 235 238 242 246 251 253 258 263 266 269 273 270 275 281 288 294 292 289 283 280 279 277 277 276 277 276 276 281 283 282 280 285 nan nan nan nan nan nan nan nan nan nan nan nan nan nan nan nan nan nan nan nan nan nan nan nan nan nan nan nan nan nan nan nan nan nan nan nan nan nan nan nan nan nan nan nan nan nan
228 229 229 228 230 231 231 235 237 241 247 251 253 253 244 245 264 270 274 273 280 291 293 292 292 288 279 275 278 278 277 274 273 282 286 290 288 289 289 nan nan nan nan nan nan nan nan nan nan nan nan nan nan nan nan nan nan nan nan nan nan nan nan nan nan nan nan nan nan nan nan nan nan nan nan nan nan nan nan nan nan nan nan nan nan
228 228 230 229 232 234 235 239 240 243 248 252 256 258 257 252 239 242 262 279 283 284 287 283 286 288 281 273 272 266 262 271 282 290 294 291 287 284 285 285 nan nan nan nan nan nan nan nan nan nan nan nan nan nan nan nan nan nan nan nan nan nan nan nan nan nan nan nan nan nan nan nan nan nan nan nan nan nan nan nan nan nan nan nan nan
231 231 232 233 235 237 237 241 243 246 249 254 257 264 264 260 255 245 250 274 281 285 283 279 281 284 280 nan 272 268 274 282 284 283 283 287 288 284 283 287 286 283 288 nan nan nan nan nan nan nan nan nan nan nan nan nan nan nan nan nan nan nan nan nan nan nan nan nan nan nan nan nan nan nan nan nan nan nan nan nan nan nan nan nan nan
234 234 234 235 237 239 239 241 245 250 254 258 258 261 264 264 263 260 252 256 269 277 278 275 278 279 273 271 276 275 275 276 278 277 277 279 277 277 277 282 284 285 284 nan nan nan nan nan nan nan nan nan nan nan nan nan nan nan nan nan nan nan nan nan nan nan nan nan nan nan nan nan nan nan nan nan nan nan nan nan nan nan nan nan nan
234 237 240 241 242 242 243 246 249 252 255 258 261 262 262 263 263 264 266 270 267 259 254 263 273 272 271 275 277 nan nan 275 275 273 272 275 280 276 270 267 274 283 nan nan nan nan nan nan nan nan nan nan nan nan nan nan nan nan nan nan nan nan nan nan nan nan nan nan nan nan nan nan nan nan nan nan nan nan nan nan nan nan nan nan nan
233 236 240 243 244 245 246 248 250 252 254 257 258 260 262 264 265 267 270 272 273 269 265 262 265 271 268 268 nan 274 277 275 271 268 270 273 271 267 262 258 261 263 nan nan nan 289 298 301 nan nan nan nan nan nan nan nan nan nan nan nan nan nan nan nan nan nan nan nan nan nan nan nan nan nan nan nan nan nan nan nan nan nan nan nan nan
237 237 240 241 241 243 244 245 247 249 251 253 255 257 259 261 263 265 265 263 261 261 260 260 264 265 273 272 nan 276 277 275 272 272 272 271 268 270 267 267 262 275 nan nan nan nan nan nan nan nan nan nan nan nan nan nan nan nan nan nan nan nan nan nan nan nan nan nan nan nan nan nan nan nan nan nan nan nan nan nan nan nan nan nan nan
236 238 241 243 243 244 245 246 247 247 246 247 249 252 255 258 259 259 259 261 261 263 267 267 266 263 264 264 nan nan nan nan 267 265 265 266 273 271 265 272 273 274 277 283 nan nan nan nan nan nan nan nan nan nan nan nan nan nan nan nan nan nan nan nan nan nan nan nan nan nan nan nan nan nan nan nan nan nan nan nan nan nan nan nan nan
228 232 236 240 243 244 246 247 247 246 247 248 250 252 253 255 257 258 258 260 264 268 271 273 273 273 271 nan nan nan 263 261 253 nan nan nan 260 263 266 270 272 nan nan nan 289 292 nan nan nan nan nan nan nan nan nan nan nan nan nan nan nan nan nan nan nan nan nan nan nan nan nan nan nan nan nan nan nan nan nan nan nan nan nan nan nan
226 227 233 237 238 242 243 244 245 246 246 248 249 250 251 252 253 253 256 262 267 272 273 nan 273 271 268 nan nan 266 264 nan nan nan 244 248 254 259 262 nan nan nan nan 285 nan nan nan nan nan nan nan nan nan nan nan nan nan nan nan nan nan nan nan nan nan nan nan nan nan nan nan nan nan nan nan nan nan nan nan nan nan nan nan nan nan
228 231 233 237 237 236 239 241 241 242 243 244 244 244 245 249 253 256 260 263 265 267 269 nan nan 266 265 nan nan nan nan nan nan 249 252 253 259 264 267 271 274 nan nan nan nan nan nan nan nan nan nan nan nan nan nan nan nan nan nan nan nan nan nan nan nan nan nan nan nan nan nan nan nan nan nan nan nan nan nan nan nan nan nan nan nan
231 231 233 233 236 236 235 236 235 234 235 236 240 246 248 250 253 255 261 265 267 nan nan nan nan nan nan nan nan nan nan nan nan nan 253 255 259 265 266 267 272 nan nan nan nan nan nan nan nan nan nan nan nan nan nan nan nan nan nan nan nan nan nan nan nan nan nan nan nan nan nan nan nan nan nan nan nan nan nan nan nan nan nan nan nan
nan nan nan nan 240 240 239 235 233 233 235 238 242 248 249 251 253 nan 262 nan nan nan nan nan nan nan nan nan nan nan nan nan 249 251 253 254 258 260 261 nan nan nan nan nan nan nan nan nan nan nan nan nan nan nan nan nan nan nan nan nan nan nan nan nan nan nan nan nan nan nan nan nan nan nan nan nan nan nan nan nan nan nan nan nan nan
nan nan nan nan nan nan nan nan 240 239 240 242 243 245 247 nan nan 255 259 nan nan nan nan nan nan nan 243 nan nan nan nan nan nan 250 252 253 255 258 nan nan nan nan nan nan nan nan nan nan nan nan nan nan nan nan nan nan nan nan nan nan nan nan nan nan nan nan nan nan nan nan nan nan nan nan nan nan nan nan nan nan nan nan nan nan nan
nan nan nan nan nan nan nan nan nan nan 243 nan nan nan nan nan nan nan nan nan nan nan nan nan nan 238 240 239 nan nan nan nan 244 246 250 252 254 256 260 nan nan nan nan nan nan nan nan nan nan nan nan nan nan nan nan nan nan nan nan nan nan nan nan nan nan nan nan nan nan nan nan nan nan nan nan nan nan nan nan nan nan nan nan nan nan
nan nan nan nan nan nan nan nan nan nan nan nan nan nan nan nan nan nan nan nan nan nan nan 228 231 236 240 241 240 241 240 238 243 248 251 256 259 264 nan nan nan nan nan nan nan nan nan nan nan nan nan nan nan nan nan nan nan nan nan nan nan nan nan nan nan nan nan nan nan nan nan nan nan nan nan nan nan nan nan nan nan nan nan nan nan
nan nan nan nan nan nan nan nan nan nan nan nan nan nan nan nan nan nan nan nan nan nan nan nan nan 230 230 nan nan nan nan 247 nan nan 254 258 nan nan 268 271 nan nan nan nan nan nan nan nan nan nan nan nan nan nan nan nan nan nan nan nan nan nan nan nan nan nan nan nan nan nan nan nan nan nan nan nan nan nan nan nan nan nan nan nan nan
nan nan nan nan nan nan nan nan nan nan nan nan nan nan nan nan nan nan nan nan nan nan nan nan nan nan nan nan nan nan nan nan nan nan nan nan nan nan nan nan nan nan nan nan nan nan nan nan nan nan nan nan nan nan nan nan nan nan nan nan nan nan nan nan nan nan nan nan nan nan nan nan nan nan nan nan nan nan nan nan nan nan nan nan nan
nan nan nan nan nan nan nan nan nan nan nan nan nan nan nan nan nan nan nan nan nan nan nan nan nan nan nan nan nan nan nan nan nan nan nan nan nan nan nan nan nan nan nan nan nan nan nan nan nan nan nan nan nan nan nan nan nan nan nan nan nan nan nan nan nan nan nan nan nan nan nan nan nan nan nan nan nan nan nan nan nan nan nan nan nan
nan nan nan nan nan nan nan nan nan nan nan nan nan nan nan nan nan nan nan nan nan nan nan nan nan nan nan nan nan nan nan 255 nan nan nan nan nan nan nan nan nan nan nan nan nan nan nan nan nan nan nan nan nan nan nan nan nan nan nan nan nan nan nan nan nan nan nan nan nan nan nan nan nan nan nan nan nan nan nan nan nan nan nan nan nan
nan nan nan nan nan nan nan nan nan nan nan nan nan nan nan nan nan nan nan nan nan nan nan nan nan nan nan nan nan nan nan nan nan nan nan nan nan nan nan nan nan nan nan nan nan nan nan nan nan nan nan nan nan nan nan nan nan nan nan nan nan nan nan nan nan nan nan nan nan nan nan nan nan nan nan nan nan nan nan nan nan nan nan nan nan
nan nan nan nan nan nan nan nan nan nan nan nan nan nan nan nan nan nan nan nan nan nan nan nan nan nan nan nan nan nan nan nan nan nan nan nan nan nan nan nan nan nan nan nan nan nan nan nan nan nan nan nan nan nan nan nan nan nan nan nan nan nan nan nan nan nan nan nan nan nan nan nan nan nan nan nan nan nan nan nan nan nan nan nan nan